Wind_Speed
32 30 28 26 24 24 25 23 22 23 21 20 21 20 21 20 22 23 25 27 28 29 30 30 26 22 21
29 27 26 23 22 20 18 17 19 18 17 18 19 22 24 25 26 28 29 30 31 31 25 21 20 20 20
25 22 17 14 13 12 12 14 18 20 21 22 25 26 28 29 30 30 30 28 22 19 19 20 21 21 22
18 14 10 10 11 13 16 19 21 23 24 25 28 28 28 28 26 23 18 16 18 20 20 21 22 23 24
13 11 11 13 15 18 20 21 22 25 26 26 28 25 22 18 15 15 17 18 19 20 22 23 24 25 26
12 13 14 17 19 20 22 23 24 24 25 24 21 17 13 13 16 17 19 20 21 22 23 23 24 26 27
14 16 17 19 20 21 22 23 23 22 21 17 14 13 14 15 17 19 20 22 23 23 23 23 24 25 26
16 17 18 18 20 20 21 21 20 18 16 14 15 15 16 17 19 20 22 23 24 24 24 24 24 25 27
16 16 17 18 18 19 20 19 16 15 15 16 18 19 19 19 20 22 23 25 26 26 26 26 26 27 28
15 16 16 17 18 18 18 17 16 15 16 17 19 21 22 22 23 25 27 29 30 30 30 29 28 29 30
15 15 16 17 18 18 18 17 17 18 18 20 21 23 24 24 24 26 29 31 34 35 36 34 31 31 31
14 15 17 18 19 19 19 19 20 21 23 23 24 26 27 27 26 27 30 32 35 37 39 39 35 34 33
15 17 18 19 19 19 19 20 22 24 25 27 28 29 30 31 30 28 31 32 35 37 39 39 36 35 33
17 18 19 20 20 20 21 22 23 26 28 29 30 31 33 33 34 31 33 35 33 36 38 37 35 35 34
18 19 19 20 21 22 23 24 25 27 30 33 34 34 35 35 36 35 35 35 37 37 38 37 32 33 34
19 19 20 21 22 24 26 26 26 27 29 32 34 37 39 38 37 36 36 37 37 38 38 40 29 29 32
20 20 21 23 24 25 27 28 28 28 30 32 34 37 38 38 39 35 35 34 37 37 37 36 35 24 31
Wind_Direction
288 288 288 285 284 281 283 276 277 283 280 279 279 283 283 283 283 282 283 284 285 285 286 284 282 280 281
283 284 284 285 284 280 276 275 275 276 282 285 283 283 286 286 283 282 283 284 285 286 283 279 279 281 283
280 281 280 280 281 279 277 278 282 285 288 292 291 291 290 288 286 286 285 285 283 278 279 280 283 286 289
273 275 276 274 283 287 286 287 290 293 296 297 294 293 292 291 290 288 285 282 282 282 282 283 284 285 286
263 272 279 287 287 288 290 292 295 296 297 296 293 292 292 292 287 286 286 287 286 286 286 286 287 287 286
270 280 286 287 290 291 293 295 296 297 297 296 295 295 293 290 290 289 289 289 288 287 287 287 286 284 282
276 283 286 289 292 294 296 296 297 298 297 297 296 297 295 291 290 290 290 288 287 287 287 285 284 282 282
278 283 288 291 293 296 296 297 298 298 299 300 299 296 291 290 290 289 288 288 288 288 288 288 287 286 285
281 285 288 290 294 295 296 297 296 298 301 302 300 297 295 293 292 291 289 289 289 290 291 291 291 289 288
283 286 289 291 294 296 296 297 298 299 298 297 295 294 292 294 294 293 293 293 293 294 293 293 293 293 293
283 286 289 292 296 297 297 298 299 297 295 296 292 291 292 292 291 290 291 293 294 296 296 296 297 295 292
283 288 292 295 296 298 298 298 298 297 298 295 292 292 292 291 289 288 289 290 290 291 292 294 295 293 291
287 291 293 294 296 299 299 299 299 298 298 298 298 297 297 296 295 291 287 284 286 285 286 288 290 289 287
288 292 294 297 298 300 301 300 299 299 299 299 299 299 299 299 299 298 293 293 288 284 284 285 286 285 284
293 296 299 301 302 302 301 300 300 299 300 301 301 300 299 299 301 301 300 298 295 291 288 286 284 282 280
298 302 303 305 304 303 301 300 301 301 300 300 301 301 302 305 307 307 305 301 296 292 290 288 283 277 278
299 304 307 308 308 306 304 303 303 303 303 302 301 301 304 306 307 311 305 301 297 293 289 286 287 277 274
Height
3102 3101 3100 3098 3096 3095 3094 3092 3092 3090 3089 3088 3087 3085 3084 3083 3081 3080 3079 3077 3075 3073 3071 3069 3068 3067 3066
3096 3094 3093 3091 3090 3089 3088 3087 3086 3086 3085 3083 3081 3079 3079 3077 3075 3073 3071 3069 3067 3065 3063 3062 3062 3061 3060
3090 3088 3086 3085 3085 3084 3084 3083 3083 3081 3078 3077 3074 3073 3072 3070 3068 3065 3063 3061 3059 3059 3058 3058 3057 3055 3054
3084 3083 3082 3082 3081 3081 3080 3078 3077 3074 3072 3070 3068 3066 3064 3062 3059 3057 3056 3055 3055 3054 3053 3052 3051 3050 3048
3079 3079 3078 3077 3077 3076 3075 3072 3070 3068 3065 3064 3061 3059 3056 3054 3053 3052 3052 3051 3050 3049 3048 3046 3045 3044 3042
3075 3075 3074 3073 3072 3071 3068 3065 3063 3060 3058 3057 3055 3052 3050 3049 3048 3047 3047 3046 3045 3043 3042 3041 3040 3038 3037
3070 3070 3069 3068 3067 3065 3062 3060 3057 3054 3053 3051 3049 3048 3046 3045 3044 3043 3042 3040 3039 3038 3037 3036 3034 3032 3030
3066 3065 3064 3062 3061 3058 3056 3054 3051 3049 3047 3045 3044 3044 3042 3040 3039 3038 3036 3035 3033 3032 3030 3029 3027 3025 3023
3061 3060 3059 3057 3055 3053 3051 3048 3046 3044 3042 3040 3039 3037 3037 3035 3033 3032 3030 3028 3026 3024 3022 3021 3019 3017 3014
3056 3055 3053 3052 3050 3048 3046 3044 3042 3040 3038 3037 3034 3033 3031 3029 3027 3025 3022 3020 3017 3015 3013 3012 3010 3007 3005
3050 3049 3048 3047 3045 3043 3040 3038 3036 3034 3034 3031 3029 3027 3025 3023 3021 3018 3015 3011 3008 3005 3003 3001 3000 2997 2995
3045 3044 3043 3042 3040 3038 3035 3033 3030 3029 3027 3026 3024 3021 3018 3016 3014 3012 3007 3003 2999 2996 2992 2990 2989 2986 2984
3040 3039 3038 3036 3034 3032 3030 3027 3025 3023 3020 3018 3016 3013 3011 3008 3006 3003 2999 2997 2992 2988 2984 2982 2980 2977 2974
3035 3034 3032 3030 3028 3026 3023 3021 3019 3016 3014 3011 3008 3005 3002 2999 2995 2993 2988 2985 2982 2977 2974 2973 2971 2967 2964
3029 3028 3026 3023 3021 3020 3017 3015 3013 3010 3006 3002 2999 2996 2993 2989 2986 2983 2980 2976 2970 2967 2963 2961 2961 2957 2954
3023 3021 3019 3017 3015 3013 3011 3008 3005 3002 2999 2995 2991 2986 2982 2980 2976 2973 2968 2963 2959 2954 2950 2946 2950 2948 2943
3017 3015 3013 3011 3008 3006 3003 3000 2997 2994 2991 2987 2982 2978 2974 2971 2968 2963 2958 2954 2947 2943 2939 2936 2934 2939 2934